FENGYUN 1C DEB, 31443

Orbit data source: Space-Track

FENGYUN 1C DEB, 31443 is space debris in SSO originally from a launch on Mon, 10 May 1999 UTC launched from the Taiyaun Space Center, China (TSC). Fengyun 1C debris stems from the Chinese weather satellite Fengyun-1C, which was intentionally destroyed by a Chinese anti-satellite missile in 2007. This event dramatically increased the amount of space debris, with thousands of trackable fragments posing hazards to satellites and human spaceflight. The Fengyun 1C debris cloud has become a focal point in discussions about space sustainability and the need for international regulations to prevent the creation of new debris.

Loading next visibility...
Identifier
31443, 1999-025BUF
Orbit
SSO
Country
Flag of CNCN / PRC
Related business
Manufacturer
Unknown
Mission
Spacecraft
Bus & Motor
Unknown
Mass
Unknown
Launch date (UTC)
1999-05-10 (27 years ago)
Launch vehicle
Unknown
Launch site
Taiyaun Space Center, China (TSC)
Object type
Payload
Rocket body
Debris
Shape & HBR
Unknown shape, 0.1 m
Radar Cross Section
Small (<0.1 m²)

Expand to show TLE details & history
Last TLE update: 1 day ago

TLE from 1 day ago
0 FENGYUN 1C DEB
1 31443U 99025BUF 26145.05956272  .00002171  00000-0  45559-3 0  9996
2 31443  99.2160 264.6867 0184882 331.5936  27.5272 14.50763392693085
Epoch: 2026-05-25T01:25Z
TLE epoch observation values (Epoch: 2026-05-25T01:25:46.219Z)
Latitude
-0.00007°
Longitude
0.59135°
Altitude
610.179 km
Speed
7.616 km/s
True Right ascension
17h 38m 44s
True Declination
0° 00' 00"
Sunlit
Object was in full shadow at epoch
Visualization orbit readout
Latitude
Unknown
Longitude
Unknown
Altitude
Unknown
Speed
Unknown
Apparent Right ascension
Unknown
Apparent Declination
Unknown
Sunlit
N/A
Visualization observer readout
Local Sidereal Time
11:18:02
Azimuth
Unknown
Elevation
Unknown
Doppler factor
Unknown
Orbital elements
Apogee altitude
851.535 km
Perigee altitude
589.06 km
Semi-major axis
7,098.435 km
Eccentricity
0.01849
Inclination
99.216°
RAAN
264.6867°
Arg. of periapsis
331.5936°
True anomaly
28.52677°
Mean anomaly
27.5272°
Eccentric anomaly
28.02492°
Mean motion
3.6291 °/min
Orbital period
99.2 mins
BSTAR
0.00045559
Loading maneuver chart data...
Computing Atmospheric mass density...

Documentation

Showing up to 5 results
|